Location: Cosy Dell
(34.2789°N, 117.4537°W)
Time: 12:16:07
(UTC+00:00)

CZ-2C R/B - Pass Details

Date: 14 July 2020
Orbit: 703 x 909 km, 98.1° (Epoch: 08 August)

Event Time Altitude Azimuth Distance (km) Brightness Sun altitude
Rises 03:27:14 0° 177° (S) 3,471 6.1 -5.2°
Reaches altitude 10° 03:29:43 10° 181° (S) 2,514 5.4 -5.7°
Maximum altitude 03:35:13 56° 259° (W) 993 3.9 -6.6°
Drops below altitude 10° 03:40:28 10° 338° (NNW) 2,403 6.5 -7.6°
Sets 03:42:48 0° 343° (NNW) 3,305 7.2 -8.0°
